Location: Passo di Treia
(43.2833°N, 13.3333°E)
Time: 08:29:53
(UTC+00:00)

IRS-1C Rocket - Pass Details

Date: 09 December 2019
Orbit: 800 x 806 km, 99.0° (Epoch: 17 January)

Event Time Altitude Azimuth Distance (km) Brightness Sun altitude
Rises 16:28:37 0° 166° (SSE) 3,306 7.4 -10.2°
Reaches altitude 10° 16:30:57 10° 167° (SSE) 2,379 6.7 -10.6°
Maximum altitude 16:36:13 82° 255° (WSW) 818 4.2 -11.5°
Drops below altitude 10° 16:41:31 10° 344° (NNW) 2,392 6.5 -12.4°
Sets 16:43:52 0° 345° (NNW) 3,326 7.3 -12.8°
